Simultaneous Nadir Overpasses (SNOs) Predictions

Prediction of SNOs between GOES-15 and METOP-B Satellite Orbit:

Table of predicted SNOs for the next 14.0 days since TLE Epoch: 1/13/2024
Index Date Time (GOES-15) GOES-15 Lat,Lon METOP-B Lat,Lon Distance(km) Time Diff (sec)
1 01/13/2024 05:27:19 -0.03, 61.53 0.41, 59.48 233.13 80
2 01/14/2024 05:09:21 -0.03, 61.54 -0.67, 64.46 332.88 80
3 01/15/2024 17:28:26 0.02, 61.59 -0.36, 59.84 198.82 80
4 01/16/2024 17:05:08 0.02, 61.61 0.73, 64.83 366.08 80
5 01/18/2024 05:24:04 -0.02, 61.62 0.27, 60.24 157.11 80
6 01/19/2024 05:06:06 -0.02, 61.64 -0.82, 65.23 408.55 80
7 01/20/2024 17:25:09 0.02, 61.69 -0.25, 60.62 122.99 80
8 01/21/2024 17:01:53 0.02, 61.72 0.91, 65.59 441.35 80
9 01/23/2024 05:20:47 -0.02, 61.75 0.14, 61.01 83.78 80
10 01/24/2024 05:02:50 -0.02, 61.77 -0.96, 66.00 481.45 80
11 01/25/2024 17:21:53 0.02, 61.81 -0.09, 61.38 49.50 80
